Location: Unspecified
(44.4377°N, 88.0525°W)
Time: 03:07:14
(UTC-06:00)

CZ-3 Stage 3 - Pass Details

Date: 04 February 2021
Orbit: 398 x 34787 km, 30.8° (Epoch: 27 February)

Event Time Altitude Azimuth Distance (km) Brightness Sun altitude
Rises 20:08:53 0° 275° (W) 7,997 8.8 -32.8°
Reaches altitude 10° 20:12:25 10° 272° (W) 8,052 8.5 -33.4°
Maximum altitude 21:11:27 58° 215° (SW) 18,318 9.2 -43.5°
Drops below altitude 10° 03:33:40 10° 232° (SW) 31,458 10.2 -37.9°
Sets 04:32:23 0° 228° (SW) 24,433 9.7 -27.6°
